Wind_Speed
32 33 33 34 35 36 35 34 34 33 34 33 32 32 33 34 34 35 33 31 29 28 28 27 27 27 27 26 25 24 23 22 22 21 21 20 18 17 15 14 13 12 11 11 10 9 8 8 7
31 33 34 35 36 37 36 36 37 37 36 35 35 35 35 36 36 37 35 34 32 31 31 30 29 29 29 28 28 27 26 24 23 22 22 21 20 20 18 17 15 14 13 12 12 11 10 9 9
32 33 35 36 36 37 37 39 40 39 38 37 38 38 39 38 38 38 38 36 35 34 33 33 32 31 31 30 30 29 28 27 25 24 23 22 21 21 20 19 18 17 15 14 13 13 12 12 11
33 34 35 36 36 36 38 39 41 39 40 40 40 40 41 40 40 40 40 39 38 37 36 36 35 34 33 32 32 31 30 29 28 26 25 24 23 22 22 21 20 19 18 17 15 15 14 14 13
34 34 35 35 35 36 38 39 41 39 40 41 41 42 42 43 43 42 42 41 41 40 39 38 37 36 35 34 34 33 32 31 29 28 26 26 25 24 23 23 22 20 20 19 18 17 16 15 14
34 34 35 34 35 36 37 38 40 40 40 42 43 43 44 43 44 44 43 43 42 42 42 41 40 39 38 37 36 35 34 32 31 30 29 27 27 26 25 24 24 23 21 21 20 19 18 17 16
35 34 35 35 35 37 37 37 38 39 40 41 42 43 43 43 43 44 43 43 43 43 43 42 42 42 41 39 38 37 36 34 33 32 31 30 29 28 27 26 25 25 24 23 22 21 20 19 18
36 36 35 35 35 37 37 37 38 38 39 40 41 42 43 42 42 43 43 43 43 43 44 43 43 43 42 42 41 40 39 37 35 34 33 32 31 30 29 28 27 26 26 25 24 23 22 21 21
36 36 35 35 36 36 36 36 37 38 38 39 40 41 41 41 41 42 43 43 43 43 44 44 44 44 44 44 44 43 41 40 38 36 35 35 33 32 31 30 29 28 28 26 26 25 24 23 23
34 34 34 34 35 35 35 35 36 36 37 38 39 40 40 41 41 42 43 43 44 44 45 45 46 46 45 45 45 45 44 42 41 39 38 37 36 34 33 32 31 30 29 29 28 27 26 25 25
32 33 33 34 34 34 35 35 36 36 37 38 39 38 39 39 40 41 43 44 45 46 46 47 48 47 47 47 47 46 45 44 43 41 40 40 39 36 35 34 33 32 31 30 29 28 28 27 27
32 32 33 34 34 34 35 35 35 36 36 37 38 38 39 40 40 41 43 45 46 47 46 47 48 48 49 48 48 47 46 45 45 44 42 42 41 39 38 36 35 33 33 32 31 31 30 29 28
31 32 32 33 33 33 34 34 35 35 35 36 36 37 39 40 41 42 43 44 46 47 47 46 47 48 49 49 49 48 47 46 46 45 45 44 43 42 40 39 37 36 34 33 33 33 32 32 31
31 31 31 31 32 32 33 33 34 33 35 35 35 36 37 37 39 41 42 43 44 45 46 47 47 48 49 50 50 49 48 47 47 46 45 44 43 43 42 41 40 38 37 36 35 34 34 34 33
30 30 30 30 30 31 31 32 32 32 33 33 34 35 35 36 36 38 40 40 41 43 44 46 47 48 49 49 49 49 48 48 48 48 47 46 45 44 43 43 42 41 40 39 38 37 36 35 35
28 28 28 28 28 28 29 29 29 30 30 31 32 32 33 34 34 35 37 38 39 40 42 43 45 47 48 50 49 49 49 48 49 48 48 47 47 46 46 44 43 43 42 41 39 39 38 37 37
25 25 25 25 25 25 26 26 26 27 28 29 29 29 30 31 33 34 35 36 37 38 39 41 44 47 47 48 50 50 50 50 50 49 49 49 47 47 46 46 46 45 44 42 41 40 40 39 38
22 23 23 24 23 24 24 24 24 24 25 26 27 27 28 28 29 31 33 33 34 35 37 39 43 47 48 48 50 50 51 52 51 51 50 51 49 48 48 48 47 46 46 44 43 42 41 41 40
20 21 22 23 22 21 22 22 22 23 23 24 25 25 25 26 25 27 29 30 31 33 34 36 40 44 47 47 48 49 50 51 51 51 51 51 50 50 50 50 49 48 47 46 45 43 43 42 42
19 20 21 21 20 20 20 20 20 20 21 22 23 24 24 25 25 25 25 26 28 30 32 33 35 38 42 44 45 45 45 48 50 50 50 50 51 51 51 50 50 50 49 49 47 45 44 43 43
17 18 19 18 18 19 19 18 18 18 18 19 20 21 22 23 23 23 23 24 25 27 28 30 32 34 37 40 43 44 44 46 48 49 49 49 51 52 51 50 50 50 50 50 48 47 45 44 44
15 15 15 15 15 15 16 16 16 17 16 17 18 19 19 20 21 21 22 23 23 24 26 27 29 31 35 38 39 42 44 46 46 47 48 48 49 50 50 49 50 50 50 49 49 49 47 45 45
12 12 12 12 13 13 13 15 15 15 15 16 17 19 19 19 20 21 21 22 23 24 25 26 27 29 32 35 36 38 40 42 44 44 45 47 47 48 48 49 49 49 49 49 50 50 49 49 49
10 11 11 11 11 12 12 14 14 15 15 15 16 16 17 18 18 19 20 21 22 22 23 24 26 27 28 31 34 36 37 39 41 42 42 44 45 47 46 47 48 47 48 49 49 49 50 50 50
8 9 9 10 11 11 11 12 13 14 14 14 15 16 17 17 17 17 18 19 19 20 21 22 23 24 26 28 32 34 35 37 39 39 41 41 43 45 45 45 46 45 47 47 47 49 49 50 49
7 8 8 9 10 10 10 11 12 13 13 14 15 15 16 17 17 16 16 16 17 17 18 20 21 22 24 25 27 29 31 32 34 36 39 40 41 42 43 44 44 44 45 46 47 47 48 49 49
7 7 7 9 10 11 10 10 10 11 13 14 15 15 15 15 15 15 15 16 17 17 17 18 19 19 20 22 23 24 26 28 30 32 34 35 38 40 42 42 43 43 45 45 46 47 47 48 49
7 7 8 8 10 10 10 11 11 11 13 14 14 15 14 14 14 15 15 14 15 15 15 15 16 17 16 17 19 21 23 25 28 30 31 32 34 37 39 40 40 42 44 46 47 47 48 49 49
8 7 8 9 10 11 11 11 11 11 12 12 13 13 13 13 13 12 12 12 11 12 12 12 13 14 15 16 17 19 21 24 26 28 29 31 31 34 37 39 40 41 44 44 45 46 49 50 51
7 8 9 10 11 11 12 12 11 11 11 11 12 11 11 11 12 11 10 10 10 9 9 9 10 11 12 12 14 17 19 22 23 25 27 29 31 32 35 38 39 40 42 43 44 46 48 50 51
Wind_Direction
253 252 252 252 252 252 253 254 254 253 252 252 252 251 251 251 252 252 255 255 254 252 250 248 247 248 248 249 250 251 252 251 251 251 251 251 252 252 253 254 255 255 254 252 248 245 243 241 240
254 253 253 252 253 253 254 254 253 253 253 253 253 253 252 252 252 253 254 254 254 252 251 249 248 247 247 248 248 249 250 250 250 250 251 250 251 252 252 253 255 256 256 255 253 250 247 246 245
255 254 254 254 254 254 255 255 254 254 254 253 253 252 252 252 252 253 253 254 253 252 251 250 248 248 247 246 247 247 248 248 249 250 250 250 250 251 251 251 252 254 255 255 255 253 251 249 248
255 255 255 255 255 255 255 255 255 254 255 254 254 254 253 253 251 252 252 252 252 251 250 250 249 249 247 246 245 246 247 247 248 249 249 249 249 250 252 250 251 252 253 255 255 255 254 251 250
255 255 256 256 255 255 255 256 257 257 257 256 255 254 254 253 251 251 251 251 251 250 249 249 249 248 247 246 245 245 246 247 247 248 249 249 250 250 251 250 250 251 252 253 254 254 254 254 252
255 256 257 257 256 256 256 257 258 259 258 257 256 255 255 253 252 251 250 250 251 250 249 248 248 248 246 245 245 244 245 246 247 247 247 248 248 249 249 251 250 250 251 252 253 253 254 254 254
255 256 258 258 257 256 257 258 258 258 258 258 258 257 255 254 252 252 251 250 249 250 249 249 248 247 245 244 244 244 244 245 246 247 247 247 248 248 249 250 251 251 251 251 252 252 253 254 255
255 257 257 258 257 257 258 258 258 259 259 260 260 259 257 254 252 252 252 251 250 249 248 248 247 246 245 244 243 244 244 244 245 247 247 246 247 248 249 249 251 252 251 250 251 252 252 254 255
254 255 256 256 256 257 258 258 259 260 260 260 260 259 257 254 252 252 252 250 250 249 249 247 246 245 244 243 243 243 243 244 245 246 247 247 247 248 249 249 249 251 252 252 251 251 252 253 255
253 254 254 254 256 258 259 260 261 261 261 260 260 259 257 254 253 254 253 252 251 250 250 247 245 243 242 242 242 242 243 244 244 245 246 247 247 247 249 249 250 250 251 252 252 251 251 252 254
252 254 254 255 257 259 261 262 262 263 262 260 260 259 257 256 255 255 254 253 252 252 251 247 244 243 242 242 241 242 242 243 244 245 246 247 247 246 248 249 250 251 251 252 252 252 252 252 253
252 253 254 255 258 260 261 263 263 263 263 262 261 260 260 259 257 256 255 255 253 252 251 247 243 243 242 241 241 241 242 242 243 245 246 246 247 247 247 248 249 251 252 252 252 252 252 252 253
252 253 255 256 258 260 263 264 263 261 262 262 262 262 263 263 261 259 259 256 254 252 250 248 244 243 242 241 241 242 242 243 243 244 245 245 245 246 246 247 248 249 250 251 252 252 252 253 253
252 253 256 257 258 260 263 264 264 263 263 263 263 264 265 265 264 261 259 257 254 252 249 247 244 242 240 240 240 240 240 242 242 242 243 245 245 246 246 246 248 249 249 250 251 253 253 253 253
252 254 255 257 259 261 263 264 264 263 264 263 263 265 266 266 266 263 260 257 255 252 250 247 244 241 239 238 239 239 240 241 241 242 243 244 245 246 246 247 248 248 248 249 251 253 254 254 253
251 254 256 257 260 261 262 263 263 263 263 265 265 266 266 267 266 265 262 259 256 254 250 247 243 241 239 239 239 239 240 240 241 241 243 244 244 245 245 246 248 248 249 250 251 254 254 254 254
248 253 256 258 259 262 263 264 264 265 265 266 266 267 268 269 267 265 263 261 257 254 251 248 244 241 240 240 239 239 239 239 240 241 242 243 243 244 244 245 246 247 249 250 251 253 254 254 254
250 253 256 258 259 261 263 265 265 266 267 267 268 269 271 271 268 267 264 260 256 253 251 249 246 242 241 240 239 239 239 239 240 241 242 243 243 243 244 245 246 246 248 249 251 253 253 254 254
251 254 257 259 260 260 263 266 267 268 269 267 268 270 272 272 271 269 265 261 257 254 251 250 248 244 242 241 240 240 239 238 239 241 242 243 243 244 244 245 246 246 247 249 251 252 254 256 256
251 254 258 261 262 262 265 268 270 270 271 270 271 272 272 273 273 273 269 264 260 256 252 251 248 245 243 241 239 240 240 239 239 240 242 242 241 243 244 244 246 247 249 249 250 252 254 256 257
253 256 259 260 260 263 266 268 272 271 272 272 274 275 276 273 273 271 270 266 262 257 252 250 250 247 244 241 239 239 239 238 239 240 242 242 242 244 244 243 244 245 248 249 249 250 253 255 256
256 258 258 260 263 267 270 273 271 272 275 277 278 280 281 279 277 275 273 269 265 261 258 254 251 248 246 243 241 240 238 238 238 241 242 242 243 243 243 244 244 246 247 249 250 251 252 253 256
255 257 259 261 265 270 273 277 278 277 276 276 280 280 283 283 279 277 276 274 267 264 262 257 253 250 247 244 243 241 239 239 239 241 242 241 241 242 244 243 244 247 248 250 251 252 252 253 256
256 257 258 262 268 274 278 281 282 280 279 281 283 285 284 286 285 282 279 277 271 265 262 259 255 250 247 245 243 243 242 242 242 242 243 242 241 242 245 245 245 247 248 250 251 251 252 253 256
261 261 263 269 273 278 281 284 284 282 283 285 287 288 290 290 290 287 280 277 275 268 265 262 260 253 249 247 244 243 244 244 244 245 245 243 241 242 244 245 246 247 250 252 252 253 253 254 256
269 269 270 279 284 286 284 286 289 287 288 289 290 291 294 293 291 292 285 280 279 274 268 265 260 254 253 250 246 244 244 245 246 248 247 245 243 243 244 245 246 248 250 252 253 254 255 254 256
274 268 276 284 287 291 294 297 296 291 290 290 292 294 294 293 293 293 290 285 283 280 272 266 260 259 256 252 247 244 245 245 247 247 248 244 242 243 244 245 246 248 251 253 254 256 256 257 258
271 273 282 289 293 296 298 300 301 293 291 290 291 296 295 293 296 298 294 289 283 280 275 268 263 260 257 254 249 246 247 249 251 249 247 245 245 244 245 247 250 251 252 254 256 258 259 259 258
271 275 280 287 293 297 299 303 303 299 298 296 295 296 298 300 298 299 298 298 292 287 279 275 267 263 261 260 256 252 253 254 255 253 251 250 249 248 249 249 250 252 254 256 258 259 259 258 259
275 278 283 288 293 298 301 305 304 305 302 303 301 300 304 306 305 305 305 306 303 301 293 285 271 267 265 267 265 260 258 257 255 256 258 257 255 254 254 254 253 255 257 259 261 262 262 261 261
Height
5802 5804 5805 5808 5810 5812 5814 5817 5818 5819 5821 5823 5826 5828 5829 5831 5833 5835 5837 5838 5841 5843 5845 5847 5849 5851 5852 5854 5855 5857 5859 5861 5862 5864 5865 5867 5868 5869 5870 5871 5872 5873 5873 5874 5874 5875 5875 5875 5876
5796 5797 5800 5801 5803 5805 5808 5809 5810 5812 5815 5817 5820 5822 5823 5824 5826 5828 5830 5832 5835 5838 5840 5842 5844 5846 5848 5849 5851 5853 5855 5857 5859 5860 5862 5864 5865 5867 5868 5869 5870 5871 5872 5872 5873 5873 5874 5874 5875
5789 5791 5793 5795 5797 5799 5801 5801 5802 5805 5807 5810 5812 5814 5816 5818 5820 5821 5823 5826 5829 5832 5834 5836 5839 5841 5842 5844 5846 5848 5850 5852 5854 5856 5858 5860 5862 5863 5865 5866 5867 5868 5869 5870 5871 5872 5872 5873 5873
5783 5784 5786 5789 5790 5792 5792 5793 5794 5798 5800 5802 5804 5806 5808 5811 5813 5814 5816 5819 5822 5825 5827 5830 5833 5835 5837 5839 5841 5843 5845 5848 5850 5852 5854 5856 5858 5860 5861 5863 5864 5865 5867 5868 5869 5869 5870 5871 5871
5775 5777 5779 5781 5783 5784 5784 5785 5787 5790 5792 5793 5795 5797 5799 5801 5803 5806 5809 5811 5814 5817 5820 5823 5826 5828 5831 5833 5836 5838 5840 5843 5845 5848 5850 5852 5854 5856 5858 5859 5861 5862 5863 5865 5866 5867 5868 5868 5869
5769 5770 5772 5774 5775 5776 5776 5777 5779 5782 5783 5784 5786 5788 5790 5792 5794 5797 5800 5803 5806 5809 5812 5815 5818 5821 5824 5827 5830 5832 5835 5838 5840 5843 5845 5847 5849 5852 5853 5855 5857 5858 5860 5861 5863 5864 5865 5866 5866
5762 5763 5764 5766 5767 5767 5769 5770 5772 5773 5775 5776 5777 5779 5781 5783 5785 5787 5791 5794 5797 5800 5803 5807 5810 5813 5817 5820 5823 5826 5829 5832 5835 5837 5840 5842 5845 5847 5849 5851 5853 5854 5856 5858 5859 5860 5861 5862 5863
5752 5755 5756 5758 5759 5759 5760 5762 5763 5765 5766 5767 5768 5770 5772 5774 5776 5779 5782 5785 5788 5791 5794 5797 5801 5804 5808 5812 5816 5819 5823 5826 5829 5832 5834 5837 5839 5841 5844 5846 5848 5850 5852 5853 5855 5856 5858 5859 5860
5744 5748 5749 5750 5750 5751 5753 5755 5756 5757 5758 5759 5759 5760 5762 5765 5767 5770 5773 5776 5779 5782 5785 5788 5792 5795 5800 5804 5808 5812 5815 5819 5822 5825 5828 5831 5834 5836 5838 5840 5843 5845 5847 5849 5851 5852 5854 5855 5856
5737 5739 5741 5741 5742 5744 5746 5747 5748 5749 5750 5751 5751 5752 5753 5755 5758 5761 5763 5766 5769 5772 5775 5778 5782 5786 5790 5795 5799 5803 5807 5811 5815 5819 5822 5825 5827 5830 5833 5835 5837 5840 5842 5844 5846 5848 5849 5851 5852
5729 5732 5733 5734 5736 5737 5739 5740 5740 5741 5742 5743 5743 5744 5745 5747 5749 5752 5754 5757 5759 5762 5765 5768 5772 5776 5781 5786 5790 5795 5799 5804 5808 5812 5815 5818 5821 5824 5827 5829 5832 5834 5836 5839 5841 5843 5844 5846 5847
5722 5724 5725 5727 5729 5730 5731 5732 5733 5734 5735 5735 5735 5736 5737 5739 5741 5743 5745 5747 5749 5751 5754 5757 5762 5767 5771 5776 5781 5786 5791 5795 5800 5804 5808 5811 5814 5817 5820 5823 5826 5828 5831 5833 5835 5837 5839 5841 5842
5714 5716 5718 5720 5721 5722 5723 5724 5725 5726 5727 5727 5728 5728 5729 5730 5732 5733 5734 5736 5738 5740 5744 5747 5752 5757 5761 5765 5771 5777 5782 5786 5791 5795 5799 5802 5806 5810 5813 5816 5819 5822 5824 5827 5829 5831 5833 5835 5836
5708 5710 5712 5713 5714 5715 5716 5717 5718 5719 5719 5720 5721 5721 5721 5722 5722 5723 5724 5725 5727 5729 5733 5736 5741 5746 5751 5756 5761 5767 5772 5777 5782 5786 5790 5794 5798 5802 5806 5809 5812 5815 5817 5820 5822 5824 5826 5828 5830
5701 5704 5705 5706 5708 5709 5710 5711 5711 5712 5712 5712 5713 5713 5713 5714 5714 5713 5714 5715 5717 5719 5722 5726 5730 5735 5740 5746 5751 5757 5763 5768 5772 5777 5781 5785 5789 5794 5798 5801 5804 5807 5810 5813 5815 5817 5820 5822 5824
5695 5698 5699 5700 5701 5702 5705 5705 5705 5704 5705 5705 5706 5706 5706 5706 5705 5705 5705 5705 5707 5709 5711 5715 5719 5724 5729 5735 5741 5747 5753 5758 5762 5767 5772 5776 5780 5785 5789 5792 5796 5799 5802 5805 5808 5810 5812 5814 5816
5690 5692 5693 5695 5696 5697 5698 5698 5699 5698 5699 5699 5699 5699 5699 5698 5698 5697 5697 5697 5698 5700 5702 5705 5709 5714 5719 5724 5730 5736 5742 5747 5753 5758 5762 5767 5771 5775 5779 5783 5787 5790 5793 5796 5799 5802 5805 5807 5809
5686 5687 5688 5690 5691 5692 5692 5693 5693 5693 5693 5693 5693 5692 5692 5691 5691 5690 5689 5689 5690 5691 5693 5696 5700 5704 5708 5713 5719 5724 5730 5736 5742 5747 5752 5756 5761 5765 5769 5774 5777 5781 5784 5788 5791 5794 5796 5798 5800
5682 5683 5685 5685 5686 5687 5688 5688 5688 5688 5688 5688 5687 5687 5686 5685 5684 5683 5682 5682 5683 5684 5686 5688 5691 5695 5698 5703 5708 5713 5719 5725 5731 5736 5741 5745 5750 5755 5759 5764 5768 5771 5775 5778 5782 5785 5787 5789 5791
5678 5680 5681 5682 5682 5683 5684 5684 5684 5683 5683 5683 5682 5681 5681 5680 5679 5678 5676 5676 5676 5677 5678 5680 5683 5686 5689 5694 5699 5704 5708 5714 5720 5725 5729 5734 5739 5744 5749 5753 5757 5761 5765 5768 5771 5775 5778 5780 5782
5675 5677 5677 5678 5679 5679 5680 5681 5680 5680 5679 5678 5678 5676 5675 5675 5674 5673 5672 5671 5671 5671 5672 5674 5676 5678 5681 5685 5689 5693 5698 5703 5709 5714 5718 5723 5728 5733 5738 5742 5747 5750 5754 5757 5761 5765 5767 5770 5772
5673 5674 5675 5675 5676 5676 5677 5677 5677 5676 5675 5674 5674 5673 5671 5670 5669 5668 5667 5666 5666 5666 5666 5667 5668 5671 5673 5676 5680 5684 5689 5694 5699 5703 5707 5712 5716 5722 5727 5731 5736 5740 5743 5747 5750 5754 5757 5759 5762
5671 5671 5672 5673 5673 5673 5674 5673 5674 5672 5672 5672 5671 5669 5668 5666 5665 5664 5662 5661 5661 5660 5660 5661 5662 5664 5666 5668 5671 5675 5679 5684 5688 5692 5696 5700 5705 5710 5715 5720 5725 5728 5732 5736 5739 5742 5745 5748 5751
5669 5670 5670 5671 5671 5672 5672 5671 5671 5670 5669 5668 5667 5666 5664 5663 5661 5660 5659 5657 5656 5656 5655 5656 5656 5656 5658 5660 5663 5666 5670 5674 5678 5681 5685 5690 5694 5700 5704 5709 5713 5717 5721 5724 5728 5731 5734 5736 5738
5668 5669 5669 5669 5669 5670 5669 5668 5669 5667 5666 5665 5664 5663 5661 5660 5658 5656 5655 5653 5652 5651 5650 5650 5650 5650 5651 5653 5655 5658 5661 5665 5668 5671 5675 5679 5684 5689 5694 5698 5702 5706 5710 5713 5716 5719 5721 5723 5726
5666 5667 5668 5668 5667 5668 5667 5666 5667 5665 5663 5662 5661 5660 5658 5656 5655 5653 5651 5650 5648 5647 5645 5645 5644 5645 5645 5646 5648 5650 5653 5656 5659 5662 5665 5669 5673 5678 5682 5686 5691 5695 5698 5701 5704 5706 5709 5711 5714
5665 5665 5666 5666 5665 5665 5665 5665 5664 5663 5662 5660 5659 5658 5656 5654 5652 5650 5648 5646 5645 5643 5641 5641 5640 5640 5640 5640 5642 5644 5646 5648 5651 5653 5656 5659 5664 5668 5672 5676 5680 5684 5687 5689 5691 5694 5697 5699 5701
5665 5665 5665 5664 5663 5663 5663 5662 5662 5660 5659 5658 5657 5655 5653 5651 5649 5647 5645 5643 5641 5640 5638 5637 5636 5636 5635 5635 5636 5638 5640 5642 5643 5646 5648 5651 5654 5658 5662 5666 5669 5672 5675 5678 5680 5682 5684 5686 5688
5664 5664 5663 5663 5662 5661 5660 5663 5660 5658 5656 5655 5654 5652 5650 5649 5647 5644 5642 5640 5639 5637 5636 5634 5633 5632 5632 5632 5632 5633 5635 5636 5637 5639 5640 5643 5646 5649 5652 5655 5659 5662 5664 5666 5668 5670 5671 5673 5675
5662 5662 5662 5662 5661 5659 5658 5662 5657 5655 5654 5652 5651 5650 5648 5646 5644 5642 5640 5638 5636 5635 5633 5631 5630 5630 5629 5629 5629 5629 5630 5631 5632 5632 5633 5635 5637 5640 5642 5645 5648 5651 5653 5655 5656 5657 5658 5660 5661